Powrót do katalogu

COSMOS 2251 DEB

AktywnyLEO
NORAD 40792·DEBRIS·🇷🇺 Russia

Wystrzelony Jun 16, 1993 z Plesetsk Cosmodrome

Loading…

Następne Przeloty (najbliższe 24 godziny)

TLE

Starzejące sięSource: Space-Track

Epoka: Sep 11, 2026, 07:23 UTC

1 40792U 93036BVV 26254.30795520  .00003190  00000-0  53191-3 0  9998
2 40792  74.0409 239.9402 0020126 273.1865 150.6092 14.70294433671879

Śledź COSMOS 2251 DEB w czasie rzeczywistym z AllMySat

Download on the App Store